Tacoma Narrows, WA

4:09 AM PST on December 17, 2017 (GMT -0800)
Tacoma Narrows

Weather History for KTIW - June, 2013

Change the Weather History Date:

Friday, June 14, 2013

  Actual Average Record
Temperature  
Mean Temperature 58 °F -  
Max Temperature 64 °F 67 °F 81 °F (1999)
Min Temperature 53 °F 50 °F 46 °F (2008)
Degree Days  
Heating Degree Days 6    
Growing Degree Days 8 (Base 50)    
Moisture  
Dew Point 46 °F    
Average Humidity 67    
Maximum Humidity 80    
Minimum Humidity 50    
Precipitation  
Precipitation 0.00 in - - ()
Sea Level Pressure  
Sea Level Pressure 30.20 in    
Wind  
Wind Speed 8 mph (SW)    
Max Wind Speed 12 mph    
Max Gust Speed 20 mph    
Visibility 10 miles    
Events      
Averages and records for this station are not official NWS values.
T = Trace of Precipitation, MM = Missing Value Source: NWS Daily Summary

Daily Weather History Graph

Daily Weather History Graph

Search for Another Location

Airport or City:

Trip Planner

Search our weather history database for the weather conditions in past years. The results will help you decide how hot, cold, wet, or windy it might be!

Date:

Astronomy

Jun. 14, 2013 Rise Set
Actual Time 5:13 AM PDT 9:08 PM PDT
Civil Twilight 4:33 AM PDT 9:48 PM PDT
Nautical Twilight 3:38 AM PDT 10:43 PM PDT
Astronomical Twilight 2:14 AM PDT 12:07 AM PDT
Moon 11:14 AM PDT (6/14) No Moon Set
Length of Visible Light 17h 14m
Length of Day
15h 54m
Waxing Crescent, 31% of the Moon is Illuminated
Jun 14
Waxing Crescent
Jun 16
First Quarter
Jun 23
Full
Jun 29
Last Quarter
Jul 8
New

Hourly Weather History & Observations

Time (PDT) Temp. Dew Point Humidity Pressure Visibility Wind Dir Wind Speed Gust Speed Precip Events Conditions
12:53 AM 54.0 °F 45.0 °F 72% 30.24 in 10.0 mi SW 10.4 mph 19.6 mph N/A   Overcast
1:53 AM 54.0 °F 44.1 °F 69% 30.25 in 10.0 mi SSW 11.5 mph - N/A   Overcast
2:53 AM 53.1 °F 45.0 °F 74% 30.24 in 10.0 mi South 11.5 mph - N/A   Overcast
3:53 AM 53.1 °F 46.0 °F 77% 30.24 in 10.0 mi South 9.2 mph - N/A   Overcast
4:53 AM 53.1 °F 45.0 °F 74% 30.24 in 10.0 mi South 6.9 mph - N/A   Overcast
5:53 AM 53.1 °F 46.0 °F 77% 30.24 in 10.0 mi South 10.4 mph - N/A   Overcast
6:53 AM 53.1 °F 46.9 °F 80% 30.25 in 10.0 mi South 9.2 mph - N/A   Overcast
7:53 AM 54.0 °F 46.9 °F 77% 30.25 in 10.0 mi South 8.1 mph - N/A   Overcast
8:19 AM 53.6 °F 46.4 °F 77% 30.25 in 10.0 mi South 8.1 mph - N/A   Overcast
8:53 AM 54.0 °F 46.9 °F 77% 30.25 in 10.0 mi SSW 6.9 mph - N/A   Overcast
9:53 AM 54.0 °F 46.9 °F 77% 30.25 in 10.0 mi WSW 5.8 mph - N/A   Overcast
10:15 AM 55.4 °F 46.4 °F 72% 30.25 in 10.0 mi West 5.8 mph - N/A   Overcast
10:53 AM 55.0 °F 46.9 °F 74% 30.25 in 10.0 mi WSW 5.8 mph - N/A   Overcast
11:53 AM 55.9 °F 46.9 °F 72% 30.24 in 10.0 mi SSE 4.6 mph - N/A   Overcast
12:53 PM 57.9 °F 46.9 °F 67% 30.24 in 10.0 mi South 6.9 mph - N/A   Overcast
1:53 PM 60.1 °F 46.9 °F 62% 30.22 in 10.0 mi SSW 5.8 mph - N/A   Overcast
2:53 PM 62.1 °F 48.0 °F 60% 30.21 in 10.0 mi Variable 4.6 mph - N/A   Overcast
3:53 PM 63.0 °F 46.9 °F 56% 30.19 in 10.0 mi WNW 6.9 mph - N/A   Scattered Clouds
4:53 PM 64.0 °F 45.0 °F 50% 30.17 in 10.0 mi WNW 4.6 mph - N/A   Scattered Clouds
5:53 PM 64.0 °F 46.0 °F 52% 30.14 in 10.0 mi Variable 3.5 mph - N/A   Scattered Clouds
6:53 PM 64.0 °F 45.0 °F 50% 30.12 in 10.0 mi Variable 3.5 mph - N/A   Clear
7:53 PM 63.0 °F 45.0 °F 52% 30.10 in 10.0 mi WSW 3.5 mph - N/A   Clear
8:53 PM 62.1 °F 46.0 °F 56% 30.09 in 10.0 mi NNE 3.5 mph - N/A   Clear
9:53 PM 60.1 °F 46.0 °F 60% 30.08 in 10.0 mi North 5.8 mph - N/A   Clear
10:53 PM 57.9 °F 46.0 °F 65% 30.08 in 10.0 mi NNE 6.9 mph - N/A   Clear
11:53 PM 55.9 °F 46.9 °F 72% 30.06 in 10.0 mi NNE 3.5 mph - N/A   Clear